SCP
2 1 1 0 0 0 0 0 0 0 0 0 0 0 0 0 0 0 0 0 0 0 0 0 0 0 0 1 0 0 0 0 0 0 0 0 0 0 0 0 0 0 0
3 1 1 1 1 0 0 0 0 0 0 0 0 0 0 0 0 0 0 0 0 0 0 0 0 0 0 1 1 0 0 0 0 0 0 0 0 0 0 -0 0 0 0
4 3 1 1 1 1 1 1 0 1 0 0 0 1 0 0 0 0 0 0 0 0 0 0 0 0 1 1 1 0 0 0 0 0 0 0 0 0 0 0 -0 0 0
4 5 3 2 1 2 1 1 1 0 0 0 1 1 1 1 0 0 0 0 0 0 0 0 1 0 1 1 1 1 0 0 0 0 0 0 0 0 0 0 -0 0 0
2 5 5 2 4 5 4 3 1 1 1 2 2 2 2 0 0 0 0 0 1 1 1 1 1 0 1 1 1 1 1 0 0 0 0 0 0 0 0 0 -0 0 0
2 3 2 4 6 5 3 3 4 3 4 4 1 2 2 2 2 2 1 1 1 1 2 1 1 1 0 1 1 1 1 1 1 1 0 0 0 0 0 0 0 -0 0
2 5 4 4 5 5 5 6 4 6 3 4 4 4 3 3 3 3 1 1 1 1 1 2 2 1 1 0 1 1 1 0 1 1 0 0 0 0 0 0 0 0 0
4 5 7 6 6 4 6 9 7 4 4 6 4 3 3 3 3 4 4 3 2 0 1 3 3 3 3 2 1 0 0 0 1 1 1 1 0 0 0 0 0 0 -0
5 4 7 7 9 7 5 8 9 6 4 7 5 2 1 1 1 3 4 4 7 2 3 4 3 3 4 3 2 1 1 1 1 1 1 1 1 1 0 0 0 0 0
4 5 5 8 7 8 4 9 7 7 4 4 3 2 4 2 1 1 3 3 4 7 4 2 5 5 4 3 2 2 0 0 1 1 1 1 1 1 1 0 0 0 0
7 5 6 6 9 12 9 11 7 5 3 3 2 2 2 1 2 2 2 1 1 3 4 4 5 6 6 4 4 3 1 0 0 0 0 0 1 1 1 1 0 0 0
9 5 4 8 11 11 10 8 8 7 5 4 3 2 2 1 1 1 1 1 1 1 2 3 2 4 4 5 3 2 0 1 0 0 0 0 0 1 1 1 0 0 0
6 15 9 9 11 10 10 8 8 6 7 5 6 3 2 2 2 2 3 3 1 0 1 1 1 3 6 4 3 1 1 1 0 0 0 0 0 0 0 1 0 0 0
3 6 8 6 4 7 7 8 7 6 5 5 5 6 3 2 3 1 2 1 0 0 1 1 2 1 1 1 1 0 2 1 0 0 0 0 0 0 0 0 0 0 0
5 7 7 10 2 1 4 5 6 6 7 5 6 6 4 3 3 2 2 2 2 2 1 1 0 0 0 0 0 0 1 1 0 0 0 0 0 0 0 0 0 0 0
7 9 5 2 0 0 1 3 5 5 6 4 4 6 5 4 3 3 2 2 4 1 1 1 0 1 1 0 0 1 1 0 0 0 0 0 0 0 0 0 0 0 0
8 8 8 9 0 4 6 6 6 3 3 3 4 4 4 4 3 3 2 2 0 2 1 1 0 1 1 1 0 0 1 1 1 0 0 0 0 0 0 0 0 0 0
5 5 3 2 0 0 1 1 2 2 2 2 2 3 3 4 4 3 2 5 2 2 1 1 0 0 0 0 1 1 1 1 1 0 0 0 0 0 0 0 0 0 0
2 1 1 0 0 0 0 1 1 1 2 1 1 3 3 4 5 3 2 2 1 1 0 0 0 0 0 0 1 1 1 1 1 0 0 0 0 0 0 0 0 0 0
3 3 1 1 0 0 0 0 1 1 1 1 2 2 2 2 2 3 2 2 2 1 1 0 0 0 0 0 0 0 1 1 0 0 0 0 0 0 0 0 0 0 0
1 0 1 1 1 1 1 1 1 1 1 1 1 1 2 1 0 1 1 1 2 1 0 0 0 0 0 0 0 0 0 0 0 0 0 0 0 0 0 0 0 0 0
0 2 2 1 1 0 0 0 1 1 1 1 1 1 1 0 0 0 0 0 0 0 0 0 0 0 0 0 0 0 0 0 0 0 0 0 0 0 0 0 0 0 0
0 0 1 1 1 1 1 0 0 2 2 1 1 1 0 0 0 0 0 0 0 0 0 0 0 0 0 0 0 0 0 0 0 0 0 0 0 0 0 0 0 0 0
1 0 0 0 -0 0 0 0 0 1 3 3 2 1 1 0 1 0 0 0 -0 -0 0 0 0 0 0 0 0 0 0 0 0 0 0 0 0 0 0 0 0 0 0
1 1 1 0 0 0 0 0 0 1 1 2 2 1 1 1 0 0 0 0 0 0 0 0 0 0 0 0 0 0 0 0 0 0 0 0 0 0 0 0 0 0 0
0 0 0 1 1 1 1 -0 0 1 1 1 1 1 1 1 1 0 0 0 0 0 0 0 0 0 -0 0 0 0 0 0 -0 -0 0 0 0 0 0 0 0 0 0
Wind_Speed_500mb
42 39 35 33 29 26 25 23 21 19 16 14 14 16 18 20 21 18 17 33 32 27 25 25 26 26 27 25 24 24 23 22 20 25 27 23 21 20 20 19 22 26 28
45 40 44 37 31 29 27 25 25 22 16 16 18 18 20 21 22 24 23 22 36 30 26 26 28 27 26 25 24 23 23 23 22 21 27 27 26 24 24 24 24 27 29
51 48 38 40 38 39 41 35 31 31 28 22 20 19 20 23 20 24 30 30 26 32 31 25 27 29 28 25 24 24 24 23 22 21 22 25 29 29 29 27 28 29 31
70 65 50 45 40 43 39 35 34 29 24 22 25 21 20 22 25 29 32 35 33 27 30 30 25 26 30 29 25 25 26 24 23 23 22 22 24 29 32 31 32 33 35
67 70 56 59 54 58 51 48 41 37 30 32 31 26 23 16 22 24 30 35 40 40 37 27 35 28 28 29 29 29 29 27 26 26 28 25 26 27 29 31 32 34 36
64 65 52 51 53 47 44 43 51 50 48 36 25 23 22 14 10 23 24 29 30 37 40 31 30 26 20 21 28 31 32 33 31 31 32 30 31 32 35 36 37 36 36
60 73 58 60 60 57 50 52 44 40 35 38 34 32 23 21 13 19 11 19 28 30 27 24 23 16 18 22 24 27 28 35 35 34 32 33 32 35 38 38 41 44 42
60 66 77 69 68 55 62 60 58 43 41 43 33 26 28 26 28 26 13 23 20 12 18 20 19 20 21 22 20 25 28 27 32 33 32 31 30 31 36 38 42 45 45
70 76 75 79 63 64 53 63 67 54 46 39 41 31 30 38 35 27 29 23 25 13 24 30 21 18 16 19 22 25 23 23 28 31 33 32 31 30 32 34 36 38 40
64 72 80 83 81 66 59 64 59 58 61 46 37 39 46 43 41 39 45 42 45 32 38 29 32 26 23 23 16 25 32 28 29 29 32 33 37 33 32 32 31 34 37
65 70 78 85 82 84 65 62 55 56 48 53 53 48 40 38 42 51 60 59 43 37 44 43 28 29 20 23 16 12 18 16 23 26 27 28 32 43 39 35 33 34 36
74 82 87 88 86 81 73 71 70 56 57 53 48 46 48 47 45 50 57 61 56 66 63 31 17 18 16 14 12 15 16 13 25 27 31 31 32 32 44 46 38 37 39
82 92 84 88 92 96 82 73 63 66 68 69 58 56 51 47 45 51 57 60 48 69 58 25 22 27 22 29 26 28 35 34 40 39 37 37 42 45 47 51 44 40 40
95 78 60 97 95 79 83 62 64 60 46 45 49 54 42 45 54 50 67 41 34 44 46 43 39 44 44 49 55 44 52 58 46 45 49 53 52 52 49 51 51 46 42
86 70 82 76 78 73 58 60 50 47 42 41 43 48 47 42 48 52 59 59 47 42 56 53 56 55 66 63 57 70 73 63 69 61 63 62 56 56 49 52 55 50 43
80 81 85 56 59 83 71 59 39 38 39 39 41 45 50 47 51 61 69 71 65 58 54 46 42 45 46 62 68 62 61 60 72 64 65 66 55 59 62 57 58 52 46
73 64 51 53 81 58 40 37 27 30 28 36 44 46 50 52 56 65 74 68 75 44 64 39 40 40 52 63 54 54 56 48 53 50 62 56 54 50 49 48 57 51 49
52 56 78 50 64 59 52 53 63 48 37 49 40 43 49 51 56 55 69 50 27 44 29 46 46 50 57 55 56 53 53 48 58 59 60 58 54 41 36 47 54 45 50
37 36 36 42 37 32 35 36 32 30 41 45 42 45 47 45 45 43 47 43 37 41 42 49 51 42 48 47 45 50 53 50 49 50 54 49 37 38 39 49 50 46 48
30 35 40 39 33 30 31 31 31 31 35 37 44 47 42 42 41 41 46 45 39 39 42 49 49 52 55 52 50 51 49 49 54 49 49 45 37 35 44 54 47 46 48
30 39 38 36 35 34 35 34 34 32 36 42 43 37 39 35 38 39 34 30 31 28 31 39 47 49 51 43 39 41 43 47 46 44 45 44 36 42 47 51 48 48 47
74 26 37 36 40 42 40 45 45 42 44 42 38 34 29 32 35 39 38 35 37 40 40 36 40 46 54 43 41 44 50 47 41 49 45 49 38 42 38 46 42 32 31
64 71 55 47 47 51 53 35 49 52 52 51 47 44 39 35 32 30 28 25 23 24 27 32 40 44 48 52 50 52 48 42 43 47 41 36 35 41 40 37 32 36 38
54 82 77 78 73 60 65 68 55 61 60 59 55 55 52 43 39 34 29 25 21 22 28 30 31 43 44 44 51 45 42 45 49 57 43 42 30 36 35 29 34 40 33
58 57 64 83 72 78 72 72 69 66 75 66 62 63 63 57 52 49 42 34 30 28 26 32 34 42 43 46 52 47 42 41 52 60 43 44 39 34 31 36 37 40 38
62 60 62 64 70 72 80 86 77 64 84 75 71 66 69 63 58 57 56 51 39 36 28 27 34 49 40 42 36 31 33 40 44 47 41 43 43 32 20 26 30 30 34
Wind_Direction_500mb
209 214 211 206 222 215 226 222 224 227 246 246 253 267 266 267 272 275 272 287 299 298 297 297 296 296 294 294 282 270 269 278 269 262 254 257 257 255 250 242 237 233 230
219 216 214 215 210 216 223 229 232 227 242 240 246 260 265 268 272 269 271 273 286 294 290 287 287 294 298 298 286 270 264 270 274 260 259 256 260 257 255 249 243 237 236
212 216 221 221 220 221 220 220 226 236 232 242 243 242 263 274 278 279 286 289 277 287 293 281 280 283 288 291 290 275 262 259 268 267 269 261 260 261 259 256 252 247 242
214 230 218 227 235 240 235 229 232 223 235 240 234 225 245 264 278 287 291 289 284 272 274 288 282 275 274 280 284 277 259 255 262 267 269 270 263 266 263 260 257 255 250
231 227 232 233 237 247 234 236 227 228 224 222 241 231 243 265 295 292 272 270 271 273 267 261 272 272 267 270 277 275 270 263 265 267 269 272 271 271 269 264 262 261 259
234 228 221 228 233 222 226 229 237 235 237 228 210 238 236 240 300 299 303 290 275 270 264 261 266 268 265 270 268 274 272 274 271 270 271 272 274 272 274 270 267 265 264
228 222 224 224 230 224 224 238 235 229 215 210 203 211 235 261 280 299 283 310 284 265 268 268 257 252 258 268 270 274 276 274 275 279 279 274 275 275 273 275 271 269 265
230 220 223 220 230 233 222 223 234 221 221 212 205 210 233 258 260 260 249 279 305 268 255 261 244 245 215 254 270 272 274 276 269 271 275 276 273 276 273 278 279 274 266
230 224 227 225 224 230 227 234 235 215 219 216 218 220 255 249 255 238 260 257 260 246 239 227 240 263 245 237 245 266 277 277 271 264 265 274 277 276 274 278 287 280 268
230 230 226 231 224 226 224 229 216 214 217 223 226 237 246 254 261 265 261 256 260 253 240 238 225 236 240 245 239 233 256 271 269 270 267 271 277 278 277 277 280 283 274
244 234 229 225 224 216 210 210 214 222 223 229 239 242 245 253 262 249 255 261 262 250 243 225 204 214 238 227 210 204 252 273 270 266 266 267 287 274 277 279 277 280 277
234 244 227 225 214 215 209 219 219 224 231 230 242 245 252 252 250 249 250 256 253 250 236 192 227 231 218 227 206 211 229 261 294 295 278 271 270 296 275 271 274 276 277
240 230 236 221 221 218 213 211 219 221 224 237 245 248 255 254 251 252 249 242 236 269 272 272 252 236 229 239 238 242 262 274 278 285 273 274 279 274 281 259 266 274 275
252 245 246 235 225 227 208 210 207 221 225 239 247 246 244 252 252 257 265 240 177 239 231 243 237 261 256 268 274 268 283 290 285 279 270 272 280 277 272 257 260 267 271
249 254 236 229 221 258 230 215 206 216 218 238 242 248 248 247 252 259 256 256 244 229 248 248 258 265 268 282 285 275 278 283 282 279 279 277 279 261 261 261 255 262 271
249 251 263 253 235 236 221 215 207 216 226 232 243 247 249 245 248 254 259 263 259 247 256 258 258 265 280 281 283 282 276 268 275 273 273 276 273 263 262 266 260 258 270
243 241 238 231 207 192 204 206 223 220 238 242 239 244 251 250 249 250 257 272 280 259 248 265 271 272 277 279 287 288 278 276 278 275 270 276 273 261 257 249 253 255 269
235 239 231 225 235 235 230 241 238 245 260 249 247 248 249 247 250 256 250 265 258 265 272 275 273 277 279 285 290 291 286 273 270 275 275 280 270 253 243 252 250 255 268
232 226 221 219 221 219 216 221 230 228 227 238 242 244 245 241 247 247 256 261 258 269 268 266 269 276 275 280 282 280 281 280 279 281 280 278 260 241 246 255 250 255 267
241 217 207 203 200 195 199 205 209 210 222 231 234 234 236 233 236 242 249 259 263 265 271 278 283 280 278 275 274 277 277 285 285 285 278 272 257 242 252 253 245 257 266
258 231 220 209 207 202 202 202 203 206 212 219 223 223 227 222 229 229 236 249 254 263 270 275 276 276 274 272 277 278 276 283 280 284 286 263 254 241 251 245 248 255 262
272 260 241 225 224 218 217 208 202 204 206 207 206 211 218 225 224 230 232 239 247 255 258 265 274 280 285 297 287 281 278 283 286 290 299 259 250 255 257 253 251 254 260
244 253 251 244 231 236 227 225 221 213 214 210 206 207 211 224 233 226 237 244 259 265 274 282 279 285 278 273 281 286 278 276 280 301 286 267 245 251 249 251 241 253 268
243 237 238 238 248 242 237 239 238 240 223 221 217 217 214 215 227 229 225 248 263 271 282 291 290 293 287 278 273 278 272 264 279 297 262 262 253 253 243 239 235 248 256
243 240 234 232 244 239 229 235 236 238 240 230 223 219 224 226 223 232 234 241 253 260 273 287 297 299 299 301 282 274 260 276 283 295 275 238 244 255 236 230 241 248 248
244 239 238 235 236 239 237 237 240 232 235 230 228 229 225 226 233 237 242 250 250 258 266 270 276 301 308 310 291 265 251 270 295 289 265 239 251 232 226 227 240 256 246
Wind_Speed_850mb
42 39 35 33 29 26 25 23 21 19 16 14 14 16 18 20 21 18 17 33 32 27 25 25 26 26 27 25 24 24 23 22 20 25 27 23 21 20 20 19 22 26 28
45 40 44 37 31 29 27 25 25 22 16 16 18 18 20 21 22 24 23 22 36 30 26 26 28 27 26 25 24 23 23 23 22 21 27 27 26 24 24 24 24 27 29
51 48 38 40 38 39 41 35 31 31 28 22 20 19 20 23 20 24 30 30 26 32 31 25 27 29 28 25 24 24 24 23 22 21 22 25 29 29 29 27 28 29 31
70 65 50 45 40 43 39 35 34 29 24 22 25 21 20 22 25 29 32 35 33 27 30 30 25 26 30 29 25 25 26 24 23 23 22 22 24 29 32 31 32 33 35
67 70 56 59 54 58 51 48 41 37 30 32 31 26 23 16 22 24 30 35 40 40 37 27 35 28 28 29 29 29 29 27 26 26 28 25 26 27 29 31 32 34 36
64 65 52 51 53 47 44 43 51 50 48 36 25 23 22 14 10 23 24 29 30 37 40 31 30 26 20 21 28 31 32 33 31 31 32 30 31 32 35 36 37 36 36
60 73 58 60 60 57 50 52 44 40 35 38 34 32 23 21 13 19 11 19 28 30 27 24 23 16 18 22 24 27 28 35 35 34 32 33 32 35 38 38 41 44 42
60 66 77 69 68 55 62 60 58 43 41 43 33 26 28 26 28 26 13 23 20 12 18 20 19 20 21 22 20 25 28 27 32 33 32 31 30 31 36 38 42 45 45
70 76 75 79 63 64 53 63 67 54 46 39 41 31 30 38 35 27 29 23 25 13 24 30 21 18 16 19 22 25 23 23 28 31 33 32 31 30 32 34 36 38 40
64 72 80 83 81 66 59 64 59 58 61 46 37 39 46 43 41 39 45 42 45 32 38 29 32 26 23 23 16 25 32 28 29 29 32 33 37 33 32 32 31 34 37
65 70 78 85 82 84 65 62 55 56 48 53 53 48 40 38 42 51 60 59 43 37 44 43 28 29 20 23 16 12 18 16 23 26 27 28 32 43 39 35 33 34 36
74 82 87 88 86 81 73 71 70 56 57 53 48 46 48 47 45 50 57 61 56 66 63 31 17 18 16 14 12 15 16 13 25 27 31 31 32 32 44 46 38 37 39
82 92 84 88 92 96 82 73 63 66 68 69 58 56 51 47 45 51 57 60 48 69 58 25 22 27 22 29 26 28 35 34 40 39 37 37 42 45 47 51 44 40 40
95 78 60 97 95 79 83 62 64 60 46 45 49 54 42 45 54 50 67 41 34 44 46 43 39 44 44 49 55 44 52 58 46 45 49 53 52 52 49 51 51 46 42
86 70 82 76 78 73 58 60 50 47 42 41 43 48 47 42 48 52 59 59 47 42 56 53 56 55 66 63 57 70 73 63 69 61 63 62 56 56 49 52 55 50 43
80 81 85 56 59 83 71 59 39 38 39 39 41 45 50 47 51 61 69 71 65 58 54 46 42 45 46 62 68 62 61 60 72 64 65 66 55 59 62 57 58 52 46
73 64 51 53 81 58 40 37 27 30 28 36 44 46 50 52 56 65 74 68 75 44 64 39 40 40 52 63 54 54 56 48 53 50 62 56 54 50 49 48 57 51 49
52 56 78 50 64 59 52 53 63 48 37 49 40 43 49 51 56 55 69 50 27 44 29 46 46 50 57 55 56 53 53 48 58 59 60 58 54 41 36 47 54 45 50
37 36 36 42 37 32 35 36 32 30 41 45 42 45 47 45 45 43 47 43 37 41 42 49 51 42 48 47 45 50 53 50 49 50 54 49 37 38 39 49 50 46 48
30 35 40 39 33 30 31 31 31 31 35 37 44 47 42 42 41 41 46 45 39 39 42 49 49 52 55 52 50 51 49 49 54 49 49 45 37 35 44 54 47 46 48
30 39 38 36 35 34 35 34 34 32 36 42 43 37 39 35 38 39 34 30 31 28 31 39 47 49 51 43 39 41 43 47 46 44 45 44 36 42 47 51 48 48 47
74 26 37 36 40 42 40 45 45 42 44 42 38 34 29 32 35 39 38 35 37 40 40 36 40 46 54 43 41 44 50 47 41 49 45 49 38 42 38 46 42 32 31
64 71 55 47 47 51 53 35 49 52 52 51 47 44 39 35 32 30 28 25 23 24 27 32 40 44 48 52 50 52 48 42 43 47 41 36 35 41 40 37 32 36 38
54 82 77 78 73 60 65 68 55 61 60 59 55 55 52 43 39 34 29 25 21 22 28 30 31 43 44 44 51 45 42 45 49 57 43 42 30 36 35 29 34 40 33
58 57 64 83 72 78 72 72 69 66 75 66 62 63 63 57 52 49 42 34 30 28 26 32 34 42 43 46 52 47 42 41 52 60 43 44 39 34 31 36 37 40 38
62 60 62 64 70 72 80 86 77 64 84 75 71 66 69 63 58 57 56 51 39 36 28 27 34 49 40 42 36 31 33 40 44 47 41 43 43 32 20 26 30 30 34
Wind_Direction_850mb
209 214 211 206 222 215 226 222 224 227 246 246 253 267 266 267 272 275 272 287 299 298 297 297 296 296 294 294 282 270 269 278 269 262 254 257 257 255 250 242 237 233 230
219 216 214 215 210 216 223 229 232 227 242 240 246 260 265 268 272 269 271 273 286 294 290 287 287 294 298 298 286 270 264 270 274 260 259 256 260 257 255 249 243 237 236
212 216 221 221 220 221 220 220 226 236 232 242 243 242 263 274 278 279 286 289 277 287 293 281 280 283 288 291 290 275 262 259 268 267 269 261 260 261 259 256 252 247 242
214 230 218 227 235 240 235 229 232 223 235 240 234 225 245 264 278 287 291 289 284 272 274 288 282 275 274 280 284 277 259 255 262 267 269 270 263 266 263 260 257 255 250
231 227 232 233 237 247 234 236 227 228 224 222 241 231 243 265 295 292 272 270 271 273 267 261 272 272 267 270 277 275 270 263 265 267 269 272 271 271 269 264 262 261 259
234 228 221 228 233 222 226 229 237 235 237 228 210 238 236 240 300 299 303 290 275 270 264 261 266 268 265 270 268 274 272 274 271 270 271 272 274 272 274 270 267 265 264
228 222 224 224 230 224 224 238 235 229 215 210 203 211 235 261 280 299 283 310 284 265 268 268 257 252 258 268 270 274 276 274 275 279 279 274 275 275 273 275 271 269 265
230 220 223 220 230 233 222 223 234 221 221 212 205 210 233 258 260 260 249 279 305 268 255 261 244 245 215 254 270 272 274 276 269 271 275 276 273 276 273 278 279 274 266
230 224 227 225 224 230 227 234 235 215 219 216 218 220 255 249 255 238 260 257 260 246 239 227 240 263 245 237 245 266 277 277 271 264 265 274 277 276 274 278 287 280 268
230 230 226 231 224 226 224 229 216 214 217 223 226 237 246 254 261 265 261 256 260 253 240 238 225 236 240 245 239 233 256 271 269 270 267 271 277 278 277 277 280 283 274
244 234 229 225 224 216 210 210 214 222 223 229 239 242 245 253 262 249 255 261 262 250 243 225 204 214 238 227 210 204 252 273 270 266 266 267 287 274 277 279 277 280 277
234 244 227 225 214 215 209 219 219 224 231 230 242 245 252 252 250 249 250 256 253 250 236 192 227 231 218 227 206 211 229 261 294 295 278 271 270 296 275 271 274 276 277
240 230 236 221 221 218 213 211 219 221 224 237 245 248 255 254 251 252 249 242 236 269 272 272 252 236 229 239 238 242 262 274 278 285 273 274 279 274 281 259 266 274 275
252 245 246 235 225 227 208 210 207 221 225 239 247 246 244 252 252 257 265 240 177 239 231 243 237 261 256 268 274 268 283 290 285 279 270 272 280 277 272 257 260 267 271
249 254 236 229 221 258 230 215 206 216 218 238 242 248 248 247 252 259 256 256 244 229 248 248 258 265 268 282 285 275 278 283 282 279 279 277 279 261 261 261 255 262 271
249 251 263 253 235 236 221 215 207 216 226 232 243 247 249 245 248 254 259 263 259 247 256 258 258 265 280 281 283 282 276 268 275 273 273 276 273 263 262 266 260 258 270
243 241 238 231 207 192 204 206 223 220 238 242 239 244 251 250 249 250 257 272 280 259 248 265 271 272 277 279 287 288 278 276 278 275 270 276 273 261 257 249 253 255 269
235 239 231 225 235 235 230 241 238 245 260 249 247 248 249 247 250 256 250 265 258 265 272 275 273 277 279 285 290 291 286 273 270 275 275 280 270 253 243 252 250 255 268
232 226 221 219 221 219 216 221 230 228 227 238 242 244 245 241 247 247 256 261 258 269 268 266 269 276 275 280 282 280 281 280 279 281 280 278 260 241 246 255 250 255 267
241 217 207 203 200 195 199 205 209 210 222 231 234 234 236 233 236 242 249 259 263 265 271 278 283 280 278 275 274 277 277 285 285 285 278 272 257 242 252 253 245 257 266
258 231 220 209 207 202 202 202 203 206 212 219 223 223 227 222 229 229 236 249 254 263 270 275 276 276 274 272 277 278 276 283 280 284 286 263 254 241 251 245 248 255 262
272 260 241 225 224 218 217 208 202 204 206 207 206 211 218 225 224 230 232 239 247 255 258 265 274 280 285 297 287 281 278 283 286 290 299 259 250 255 257 253 251 254 260
244 253 251 244 231 236 227 225 221 213 214 210 206 207 211 224 233 226 237 244 259 265 274 282 279 285 278 273 281 286 278 276 280 301 286 267 245 251 249 251 241 253 268
243 237 238 238 248 242 237 239 238 240 223 221 217 217 214 215 227 229 225 248 263 271 282 291 290 293 287 278 273 278 272 264 279 297 262 262 253 253 243 239 235 248 256
243 240 234 232 244 239 229 235 236 238 240 230 223 219 224 226 223 232 234 241 253 260 273 287 297 299 299 301 282 274 260 276 283 295 275 238 244 255 236 230 241 248 248
244 239 238 235 236 239 237 237 240 232 235 230 228 229 225 226 233 237 242 250 250 258 266 270 276 301 308 310 291 265 251 270 295 289 265 239 251 232 226 227 240 256 246